CW4525 Weather Reports


time (UTC)temp
F
wind
direction
speed
knots
gust
knots
rain 1hr
in
rain 24hr
in
rain mn
in
humidity
%
barometer
mb
20260507143032 53 267 7.0 16.5 0.00 0.07 0.01 64 1003.8
20260507141526 54 279 7.0 17.4 0.00 0.07 0.01 65 1003.7
20260507140027 52 304 6.1 11.3 0.00 0.07 0.01 67 1003.5
20260507134525 51 254 5.2 12.2 0.00 0.07 0.01 70 1003.7
20260507133022 51 310 4.3 13.0 0.00 0.07 0.01 71 1003.8
20260507131523 51 294 5.2 15.6 0.00 0.07 0.01 70 1003.8
20260507130016 51 271 6.1 12.2 0.00 0.07 0.01 71 1003.9
20260507124515 50 329 4.3 10.4 0.00 0.07 0.01 74 1003.9
20260507123018 49 295 7.8 13.9 0.00 0.07 0.01 74 1003.8
20260507121510 48 261 4.3 13.9 0.00 0.07 0.01 77 1003.9
20260507120009 47 332 2.6 13.0 0.00 0.07 0.01 81 1004.0
20260507114508 46 290 1.7 5.2 0.00 0.07 0.01 84 1004.0
20260507113005 46 339 0.0 6.1 0.00 0.07 0.01 85 1003.8
20260507111503 45 280 3.5 7.0 0.00 0.07 0.01 86 1003.8
20260507110003 45 331 1.7 7.0 0.00 0.07 0.01 86 1003.7
20260507104559 45 306 3.5 7.8 0.00 0.07 0.01 86 1003.3
20260507103058 45 296 3.5 8.7 0.00 0.07 0.01 86 1003.2
20260507101606 45 284 3.5 8.7 0.00 0.07 0.01 85 1003.3
20260507100055 46 280 3.5 10.4 0.00 0.07 0.01 85 1002.8
20260507094559 46 309 3.5 10.4 0.00 0.07 0.01 85 1003.3
20260507093051 46 310 4.3 10.4 0.00 0.07 0.01 86 1003.3
20260507091600 46 304 3.5 7.8 0.00 0.07 0.01 85 1003.4
20260507090108 46 278 4.3 10.4 0.00 0.07 0.01 85 1003.6
20260507084545 46 248 3.5 10.4 0.00 0.07 0.01 86 1003.5
20260507083043 46 260 5.2 10.4 0.00 0.07 0.01 87 1003.1
20260507081551 46 267 4.3 9.6 0.00 0.07 0.01 87 1003.2
20260507080039 46 238 2.6 7.8 0.00 0.07 0.01 88 1002.8
20260507074541 47 302 4.3 10.4 0.00 0.07 0.01 89 1003.0
20260507073044 47 262 4.3 7.8 0.00 0.07 0.01 89 1003.0
20260507071534 47 279 3.5 9.6 0.00 0.07 0.01 88 1002.6
20260507070039 47 271 5.2 11.3 0.00 0.07 0.01 88 1002.6
20260507064531 47 296 4.3 9.6 0.00 0.07 0.01 89 1002.7
20260507063030 48 276 5.2 12.2 0.00 0.07 0.01 90 1002.5
20260507061533 48 289 4.3 9.6 0.00 0.07 0.01 90 1002.5
20260507060033 48 322 4.3 8.7 0.00 0.07 0.01 91 1002.7
20260507054524 48 304 5.2 9.6 0.01 0.07 0.01 92 1003.0
20260507053021 48 275 3.5 7.0 0.01 0.07 0.01 91 1002.7
20260507051520 48 231 0.9 5.2 0.01 0.07 0.01 91 1003.0
20260507050030 48 270 1.7 5.2 0.01 0.07 0.01 91 1003.0
20260507044531 49 277 2.6 7.8 0.00 0.06 0.00 92 1002.7
20260507043014 49 263 2.6 9.6 0.00 0.06 0.00 92 1002.4
20260507041513 49 281 4.3 8.7 0.00 0.06 0.00 92 1002.9
20260507040010 50 270 4.3 7.8 0.00 0.06 0.00 92 1002.8
20260507034507 50 266 3.5 8.7 0.00 0.06 0.06 92 1002.6
20260507033008 51 269 4.3 12.2 0.01 0.06 0.06 92 1002.4
20260507031601 52 338 7.0 13.9 0.01 0.06 0.06 92 1002.1
20260507030107 53 265 5.2 11.3 0.01 0.06 0.06 92 1001.9
20260507024556 54 292 6.1 18.2 0.01 0.06 0.06 91 1002.3
20260507023049 55 274 3.5 10.4 0.00 0.05 0.05 92 1002.3
20260507021604 56 262 4.3 13.0 0.00 0.05 0.05 92 1001.7
20260507020051 57 289 7.0 13.0 0.00 0.05 0.05 92 1001.5
20260507014553 58 279 6.1 12.2 0.00 0.05 0.05 93 1001.3
20260507013039 58 248 5.2 11.3 0.00 0.05 0.05 93 1000.8
20260507011539 59 176 6.1 13.0 0.00 0.05 0.05 92 1000.8
20260507010038 59 202 5.2 8.7 0.00 0.05 0.05 92 1000.8
20260507004541 59 184 5.2 11.3 0.00 0.05 0.05 93 1000.7
20260507003036 59 159 6.1 10.4 0.00 0.05 0.05 92 1000.5
20260507001536 58 201 6.1 12.2 0.00 0.05 0.05 93 1000.5
20260507000036 58 119 5.2 10.4 0.00 0.05 0.05 93 1000.4
20260506234534 59 188 5.2 10.4 0.00 0.05 0.05 93 1000.1
20260506233034 59 185 4.3 8.7 0.00 0.05 0.05 93 1000.1
20260506231534 59 181 4.3 11.3 0.00 0.05 0.05 93 1000.2
20260506230033 59 187 4.3 12.2 0.00 0.05 0.05 92 1000.2
20260506224536 58 160 5.2 12.2 0.00 0.05 0.05 92 1000.5
20260506223031 59 161 7.0 10.4 0.00 0.05 0.05 92 1000.5
20260506221532 59 131 5.2 12.2 0.00 0.05 0.05 92 1000.5
20260506220036 59 195 7.0 13.0 0.00 0.05 0.05 92 1000.6
20260506214529 59 163 6.1 13.0 0.00 0.05 0.05 92 1000.6
20260506213028 59 142 5.2 11.3 0.00 0.05 0.05 92 1000.5
20260506211527 60 142 8.7 20.9 0.00 0.05 0.05 92 1000.5
20260506210028 60 179 5.2 16.5 0.01 0.05 0.05 92 1000.6
20260506204528 60 173 7.8 19.1 0.02 0.05 0.05 92 1000.7
20260506203025 60 161 8.7 15.6 0.02 0.05 0.05 91 1000.7
20260506201539 60 157 7.8 15.6 0.02 0.05 0.05 91 1001.1
20260506200027 61 169 6.1 13.0 0.01 0.04 0.04 91 1001.1
20260506194523 61 180 9.6 16.5 0.00 0.03 0.03 90 1001.4
20260506193025 61 155 5.2 16.5 0.01 0.03 0.03 90 1001.6
20260506191522 61 181 7.0 15.6 0.01 0.03 0.03 89 1001.3
20260506190021 61 145 7.0 13.9 0.02 0.03 0.03 88 1001.0
20260506184520 61 168 5.2 10.4 0.03 0.03 0.03 88 1001.5
20260506183019 61 137 4.3 9.6 0.02 0.02 0.02 87 1002.0
20260506181518 62 171 5.2 10.4 0.02 0.02 0.02 85 1002.1
20260506180018 62 170 4.3 8.7 0.01 0.01 0.01 83 1002.3
20260506174516 63 217 5.2 8.7 0.00 0.00 0.00 80 1002.6
20260506173016 64 237 6.1 13.9 0.00 0.00 0.00 74 1002.6
20260506171516 66 211 7.8 20.9 0.00 0.00 0.00 69 1002.5
20260506170016 68 211 7.0 16.5 0.00 0.00 0.00 65 1002.4
20260506164515 68 244 7.8 24.3 0.00 0.00 0.00 64 1002.4
20260506163029 68 202 6.1 24.3 0.00 0.00 0.00 64 1002.5
20260506161513 68 190 11.3 24.3 0.00 0.00 0.00 63 1002.6
20260506160015 68 161 7.0 18.2 0.00 0.00 0.00 63 1002.9
20260506154509 67 129 4.3 13.0 0.00 0.00 0.00 66 1003.2
20260506153008 67 192 5.2 18.2 0.00 0.00 0.00 65 1003.4
20260506151507 67 215 6.1 18.2 0.00 0.00 0.00 66 1003.6
20260506150008 67 199 6.1 13.0 0.00 0.00 0.00 68 1003.8
20260506144509 67 153 5.2 19.1 0.00 0.00 0.00 68 1003.3